Dewpoint
-5 -1 1 2 4 4 5 0 3 3 5 3 2 2 -0 0 1 2 2 2 2 2 3 3 4 4 2 2 1 1 2 2 0 -2 0 1 1 2 1 4 4 4 4 1
-5 -3 -0 3 3 6 5 5 6 6 4 8 6 2 2 2 1 1 1 3 2 2 3 5 3 3 3 2 2 2 2 2 -1 -1 1 1 2 2 1 1 3 4 7 1
-5 -5 -1 1 5 5 2 4 9 4 2 3 2 3 3 3 2 2 2 2 2 3 4 3 4 4 3 3 3 1 2 2 -1 -2 -4 -2 -2 -2 -0 1 6 3 2 0
-6 -5 -4 -1 3 3 0 1 6 5 8 4 2 2 2 3 3 2 2 2 2 3 5 4 4 4 3 2 2 3 3 3 2 0 -1 -1 0 1 -0 1 2 4 2 -1
-6 -5 -6 -2 -1 2 0 5 6 4 4 3 2 3 3 2 2 1 2 2 2 1 2 -1 3 2 2 1 3 3 3 4 4 4 1 0 2 0 0 1 1 1 1 2
-6 -5 -6 -4 -1 -0 0 1 2 5 3 3 4 4 2 2 2 3 2 2 3 4 2 1 3 3 3 2 2 4 5 5 5 8 2 3 6 1 -0 0 -0 1 2 -1
-6 -5 -5 -5 -2 -0 -2 0 1 2 7 4 4 2 2 2 2 3 2 2 2 3 3 3 3 1 2 3 3 4 5 6 5 7 6 8 1 -2 -1 -0 -1 -2 -2 -2
-5 -5 -5 -4 -2 -0 -1 1 -1 -1 6 4 4 3 3 3 3 3 3 4 4 4 4 6 7 4 5 4 2 3 3 6 6 7 5 1 0 -2 -1 0 1 -1 -0 0
-5 -5 -4 -2 0 1 0 -0 -2 -4 2 6 3 3 3 5 5 5 5 4 4 3 5 7 8 5 1 0 2 2 2 3 7 5 7 5 -1 -2 0 0 2 1 1 2
-4 -4 -3 -1 1 2 2 0 -1 -3 -2 2 3 4 4 4 4 6 5 5 5 4 5 6 7 7 1 2 6 5 4 5 6 5 6 4 -1 -1 -1 5 4 1 1 3
-2 -2 -1 -0 1 2 2 1 -0 -2 -1 3 3 2 4 3 4 7 5 6 6 5 7 7 6 6 5 3 1 3 4 7 6 5 6 6 -1 -0 4 2 2 2 3 3
-1 -0 1 1 1 2 2 1 1 -0 -1 2 3 2 1 2 2 4 5 5 5 6 7 5 4 6 4 7 6 0 3 2 2 2 3 -1 -1 0 1 3 3 4 3 1
1 1 2 3 2 2 2 2 1 1 1 4 4 4 4 4 3 3 5 4 4 5 4 5 4 5 4 6 5 3 1 0 3 3 0 -0 1 2 4 3 3 2 1 1
3 3 4 4 4 3 3 3 2 2 2 3 5 3 4 4 4 4 4 4 3 4 3 4 4 7 3 6 4 4 2 1 2 2 2 2 2 4 3 2 1 -1 -4 -5
5 5 5 5 5 5 5 4 4 4 3 5 4 3 3 3 3 4 5 5 5 5 5 4 6 5 4 4 3 4 2 2 4 5 3 4 3 2 1 1 -4 -6 -7 -6
5 5 6 5 5 5 5 5 5 4 4 3 6 3 3 2 2 3 4 6 6 5 5 5 4 3 3 4 5 2 2 3 3 3 4 3 2 1 -3 -5 -6 -7 -7 -8
4 4 5 5 5 4 4 4 3 5 5 3 4 4 4 3 4 4 4 4 5 6 5 4 4 4 4 3 4 3 1 0 1 3 2 1 -0 -1 -4 -5 -6 -7 -10 -10
4 4 4 5 5 4 5 4 3 4 4 3 3 4 3 3 3 3 3 4 4 4 4 3 4 4 4 4 2 -0 -1 -1 -0 1 1 0 -3 -4 -5 -8 -10 -10 -11 -10
4 4 5 6 6 6 6 4 4 4 3 4 4 5 5 2 2 2 3 3 3 3 2 2 3 2 4 2 -1 -1 -1 -1 -2 -3 -4 -7 -8 -11 -11 -11 -11 -10 -9 -9
5 5 5 5 5 5 5 5 5 5 5 4 3 3 4 3 2 2 3 2 3 4 2 1 1 2 -2 -1 -1 -2 -2 -3 -2 -4 -10 -11 -10 -11 -10 -9 -8 -8 -9 -8
5 4 3 2 3 4 4 3 3 2 1 1 1 2 2 2 3 2 2 2 1 3 1 3 2 2 -1 -2 -4 -5 -8 -7 -9 -9 -10 -10 -10 -9 -8 -8 -8 -7 -8 -8
3 3 1 1 2 1 1 1 -1 1 3 -0 0 1 1 1 2 1 0 2 1 2 -1 1 1 -1 -2 -3 -5 -8 -10 -9 -10 -10 -10 -10 -8 -7 -7 -8 -9 -10 -9 -10
1 1 -0 -0 -1 2 2 2 2 2 -0 -0 -0 -0 0 0 1 -0 1 2 2 -2 -0 0 -1 -2 -3 -4 -6 -7 -8 -11 -14 -12 -10 -8 -8 -9 -9 -10 -10 -9 -10 -10
-0 -0 0 1 1 1 1 1 1 -1 -0 -0 0 -1 0 -1 -0 -1 2 -1 -2 0 -0 0 -2 -2 -2 -4 -6 -8 -9 -11 -14 -14 -12 -10 -9 -9 -9 -9 -9 -10 -10 -10
-1 -1 0 -0 -3 -2 -1 -1 -1 -1 -0 -0 -1 -1 -1 -1 -1 -1 -1 -1 -0 -1 -1 -2 -3 -2 -4 -6 -9 -7 -9 -13 -14 -12 -10 -8 -8 -8 -8 -9 -9 -8 -9 -10
-7 -4 -2 -3 -1 -2 -1 -1 -1 -0 -0 -0 -2 -1 -0 -1 -1 -1 -1 -1 -2 -2 -3 -2 -3 -5 -9 -10 -13 -15 -14 -13 -12 -9 -8 -8 -8 -8 -9 -9 -9 -10 -10 -10
-7 -3 -3 -3 -2 -1 -2 -1 -1 -1 -2 -1 -3 -2 -2 -4 -2 -2 -3 -2 -3 -4 -3 -6 -9 -11 -11 -12 -12 -13 -13 -12 -10 -9 -8 -7 -8 -9 -9 -9 -9 -8 -8 -9
Wind_Speed
6 7 8 9 12 12 9 5 4 10 13 5 2 3 4 3 4 3 4 4 5 4 3 3 3 4 2 1 1 2 3 1 2 2 2 2 1 1 0 2 2 2 4 8
5 6 7 7 11 11 8 4 5 6 10 4 3 4 4 4 3 3 3 3 2 3 4 4 5 4 2 1 1 2 1 0 2 3 5 4 4 3 1 2 0 9 5 4
5 5 6 7 9 9 8 4 3 2 2 2 8 9 6 5 5 4 6 5 6 7 4 4 6 5 3 1 2 1 1 2 3 4 7 4 8 9 7 10 5 7 14 16
5 5 5 5 7 7 6 3 2 3 4 4 9 5 6 11 5 3 2 4 3 5 4 4 4 4 5 3 3 1 2 3 3 8 11 14 13 15 13 16 17 11 18 17
5 5 4 5 5 6 3 3 4 4 4 6 10 1 6 9 6 3 4 7 7 5 5 2 6 5 3 3 4 2 0 1 2 4 7 10 13 16 15 16 16 17 18 19
6 5 4 5 5 5 3 4 8 5 1 3 4 3 7 8 9 5 4 15 10 8 8 6 6 3 4 1 2 3 2 2 0 3 8 14 5 4 2 4 6 8 12 13
8 5 4 4 5 5 5 6 8 4 3 2 3 7 5 11 3 7 8 6 6 4 9 8 7 8 6 1 2 1 4 3 1 2 4 3 3 7 11 14 14 10 12 11
9 6 4 4 5 5 5 8 4 3 3 4 5 9 11 11 9 9 8 4 6 11 4 2 3 1 2 3 6 2 3 3 3 2 3 13 12 3 2 3 15 10 6 6
11 9 6 5 6 7 7 7 6 4 11 4 7 7 10 6 5 5 4 6 12 5 3 2 2 1 1 2 4 5 4 3 2 2 3 5 5 4 3 4 9 6 11 15
13 11 9 7 8 8 8 8 7 5 6 8 9 4 7 6 5 4 5 6 3 3 2 2 2 3 2 3 3 4 3 2 4 6 6 8 8 4 1 4 4 11 20 21
15 12 10 9 8 8 8 8 7 6 4 11 8 7 6 7 7 5 9 5 2 3 2 3 3 2 3 3 1 3 4 6 4 3 4 6 1 4 3 12 21 21 20 10
16 14 11 10 9 9 9 8 8 7 4 7 10 8 8 8 8 8 12 1 5 8 4 3 3 3 1 2 3 4 5 6 3 6 7 12 17 17 19 16 16 7 4 5
16 15 13 11 9 8 8 9 9 8 6 6 7 7 10 9 9 10 5 5 6 5 5 6 2 3 5 4 5 8 7 11 4 7 10 17 17 22 7 8 11 5 7 6
16 16 14 12 10 9 9 9 9 8 5 4 4 8 10 12 12 12 11 8 11 8 8 4 3 2 8 3 4 6 10 10 11 14 19 21 10 4 4 1 5 4 2 5
17 16 15 13 11 9 8 8 9 9 5 4 4 8 9 10 11 13 13 11 12 8 5 3 3 3 4 2 1 4 18 17 6 5 12 8 3 2 0 2 3 3 7 11
18 17 15 13 11 8 7 4 8 9 7 3 2 5 7 13 13 12 11 10 9 8 5 5 5 7 5 3 3 8 9 11 12 9 8 2 6 1 6 2 3 7 13 16
21 18 16 14 13 11 8 3 3 14 9 3 1 2 3 8 8 7 8 11 6 6 4 6 7 7 7 2 4 4 1 1 2 3 3 5 4 2 3 4 9 14 16 17
24 21 18 16 15 15 15 11 4 10 8 4 3 2 2 7 4 4 5 5 8 7 5 4 4 5 6 3 5 3 5 4 5 2 2 3 5 1 6 10 14 17 19 21
29 23 21 20 23 17 19 17 15 11 9 4 6 5 4 7 4 4 4 5 2 4 4 4 5 2 5 2 4 4 8 5 9 9 5 2 2 7 10 14 17 19 22 24
31 29 17 11 12 15 19 13 8 8 11 11 5 7 3 6 7 3 5 2 1 2 1 2 2 2 2 4 8 9 12 11 6 2 1 5 9 12 14 15 17 19 23 26
34 16 9 14 25 14 11 7 5 5 1 5 6 7 4 7 3 3 4 2 2 2 2 2 2 3 7 13 12 10 10 6 3 2 5 9 12 15 16 18 19 20 25 28
15 16 22 16 6 3 4 3 4 3 4 6 5 5 5 5 4 4 5 2 2 2 1 2 3 2 14 15 12 11 7 3 2 6 10 12 14 14 17 21 22 26 29 31
21 6 6 5 3 3 6 7 2 3 6 6 6 4 4 4 3 5 2 4 2 2 2 3 0 10 16 13 10 7 5 3 10 13 14 15 17 18 20 23 24 27 31 32
4 4 4 0 3 2 2 3 3 3 8 13 12 6 3 3 3 1 2 2 2 3 4 4 3 14 14 10 7 6 6 11 18 20 19 18 18 22 23 22 24 27 31 30
4 2 3 2 3 4 9 11 7 7 14 11 8 6 2 2 2 1 2 4 4 4 2 2 10 13 11 7 7 8 14 19 21 20 19 18 20 23 25 24 26 29 31 30
2 4 4 5 4 4 6 9 12 13 14 9 4 3 3 2 2 3 5 3 5 1 2 7 12 9 7 5 10 15 17 19 20 18 19 21 22 22 24 27 28 31 32 32
3 3 9 4 4 8 8 9 9 15 10 2 3 4 2 5 2 3 4 3 0 4 8 9 6 6 8 14 19 20 19 19 18 20 21 22 21 22 25 30 32 33 32 28
Wind_Direction
109 95 91 148 160 154 152 155 144 162 155 146 74 131 116 116 120 90 95 88 92 113 102 96 108 139 82 32 338 32 32 335 282 8 116 0 309 119 229 262 205 234 295 278
123 107 94 112 163 162 152 119 106 152 170 152 126 126 105 80 141 63 106 104 73 118 123 121 124 121 88 50 62 27 117 226 298 171 164 192 238 189 150 300 336 243 238 261
143 121 108 100 143 164 157 135 123 109 137 109 149 144 139 120 67 78 85 109 118 127 107 71 139 135 147 48 78 99 245 222 256 284 310 295 259 257 257 228 234 263 251 284
165 141 124 120 126 142 155 116 101 141 152 145 141 129 150 142 133 97 114 112 164 142 119 112 129 143 151 139 153 141 271 261 260 275 283 281 275 270 262 242 245 257 271 285
181 161 141 139 136 142 138 133 145 94 87 128 142 92 151 155 126 162 129 146 123 132 129 154 165 154 208 208 165 174 122 285 343 287 299 289 289 271 261 261 264 260 270 280
197 181 162 153 150 149 124 121 132 124 42 134 168 133 145 153 135 58 82 136 118 96 106 96 81 83 76 101 217 187 227 187 205 278 336 313 276 320 184 209 263 279 291 312
201 191 174 156 158 152 131 150 144 124 128 182 118 144 128 143 94 126 126 125 117 119 136 105 87 69 66 118 66 352 134 108 50 298 296 281 61 294 278 291 298 299 296 314
198 193 177 158 158 159 140 146 133 121 107 122 119 128 124 110 98 103 121 59 120 138 126 88 20 94 53 79 52 85 224 141 139 258 258 294 297 59 19 301 300 315 324 336
199 191 180 163 148 146 143 148 136 110 121 215 140 129 159 138 126 120 87 110 141 133 84 86 144 241 270 186 151 65 91 100 235 173 257 277 330 19 356 287 287 73 343 324
199 195 187 175 166 159 152 149 145 123 106 158 151 151 169 144 134 114 137 154 140 116 89 109 161 226 334 232 201 191 135 152 216 231 255 272 296 0 301 271 341 316 305 306
198 197 191 185 178 176 170 161 160 151 120 160 165 153 152 154 167 150 151 140 155 96 109 167 199 214 203 226 254 206 211 170 198 185 262 275 123 196 313 307 300 301 312 318
198 197 196 191 186 182 179 174 167 160 139 164 172 172 178 176 182 158 169 190 154 169 116 190 133 189 185 218 250 190 267 214 261 218 248 287 293 283 299 311 314 315 295 321
198 199 196 193 192 189 187 179 169 162 135 135 158 182 187 182 177 176 158 197 173 175 163 148 154 199 171 189 228 263 256 243 242 285 265 286 307 305 343 355 325 3 339 327
198 200 198 192 188 185 186 181 176 173 144 137 190 194 192 200 204 210 213 212 192 186 179 145 149 197 206 220 275 250 258 274 272 278 285 289 279 5 299 66 11 37 305 331
199 199 200 198 191 186 184 187 184 184 175 155 155 182 200 194 204 213 220 220 211 190 153 150 204 207 176 191 338 258 254 262 253 255 328 321 34 145 295 50 49 311 340 336
202 202 200 198 194 185 182 200 214 201 198 164 135 220 214 215 214 214 206 201 214 210 192 198 221 219 199 185 221 273 282 282 287 310 319 312 145 176 121 137 322 331 315 309
203 201 203 204 195 194 188 209 205 197 181 181 138 265 217 212 204 201 210 216 217 213 214 217 229 218 208 176 236 184 219 246 299 91 84 106 182 189 189 312 311 309 313 314
202 203 206 206 210 210 209 207 135 162 173 194 135 238 226 184 166 161 183 186 205 210 211 205 189 168 199 252 193 164 148 140 115 78 69 148 146 232 310 311 316 317 317 317
203 201 206 209 211 207 209 218 229 232 222 207 176 168 214 174 143 137 144 175 193 220 229 208 173 172 212 177 157 158 189 190 146 117 108 94 317 311 318 320 316 313 316 318
197 200 190 202 184 196 199 211 202 207 214 213 199 167 142 170 167 137 141 168 172 228 196 270 207 242 185 174 143 133 122 125 135 189 293 331 325 320 317 313 314 315 315 318
184 178 159 154 144 152 174 189 183 173 266 188 156 183 133 169 154 133 172 153 170 239 133 260 214 228 184 157 145 137 139 146 146 344 320 317 311 312 311 314 313 316 319 319
176 160 136 133 152 120 136 175 184 188 180 155 150 148 134 134 134 131 164 153 165 229 92 235 239 121 161 162 163 167 171 161 335 322 313 308 306 304 310 314 316 319 317 319
129 114 104 131 160 187 181 168 169 157 169 156 148 107 106 118 131 90 158 185 177 121 203 233 245 156 166 172 177 180 185 290 320 314 309 304 308 307 313 314 317 318 319 320
95 104 105 191 145 82 84 68 107 132 139 130 123 87 84 85 71 85 174 75 204 223 229 223 160 174 179 185 195 217 242 297 312 310 310 308 308 310 313 313 315 319 323 323
80 70 86 73 115 102 113 116 115 111 145 128 105 87 102 83 110 78 124 178 232 232 236 133 167 170 176 197 243 257 282 300 305 309 308 307 309 311 311 315 315 320 323 320
80 83 97 126 106 103 123 133 134 144 152 129 98 111 147 129 143 183 209 214 228 155 169 156 159 176 203 232 285 292 297 300 301 304 305 308 311 312 313 315 318 320 322 320
50 68 132 159 148 158 152 152 154 161 146 130 151 175 138 123 184 218 201 225 313 172 157 159 182 212 275 298 299 301 302 301 302 304 306 307 309 311 316 319 323 321 319 318
Height
1507 1507 1507 1507 1508 1510 1513 1514 1515 1518 1520 1524 1526 1524 1526 1531 1532 1533 1534 1536 1537 1539 1544 1547 1549 1553 1554 1559 1558 1556 1560 1557 1556 1554 1557 1557 1555 1554 1553 1557 1558 1558 1559 1546
1507 1508 1508 1507 1509 1510 1512 1514 1517 1518 1520 1523 1526 1529 1530 1532 1532 1534 1534 1537 1539 1542 1545 1551 1551 1554 1560 1560 1558 1558 1559 1559 1557 1555 1557 1556 1553 1553 1557 1558 1563 1560 1565 1542
1507 1507 1508 1508 1508 1510 1512 1514 1517 1520 1520 1520 1521 1525 1529 1532 1535 1536 1537 1539 1540 1542 1546 1548 1553 1555 1560 1560 1560 1560 1560 1558 1556 1556 1550 1553 1554 1551 1554 1555 1562 1550 1542 1535
1506 1507 1508 1508 1509 1510 1512 1512 1516 1517 1520 1522 1522 1525 1528 1530 1533 1537 1537 1539 1539 1541 1549 1550 1553 1554 1558 1560 1561 1560 1559 1559 1557 1554 1552 1549 1552 1552 1550 1550 1547 1551 1539 1532
1505 1506 1507 1508 1509 1510 1511 1512 1515 1518 1521 1523 1523 1527 1528 1529 1534 1534 1536 1537 1542 1541 1545 1546 1552 1552 1554 1554 1560 1559 1561 1560 1565 1562 1554 1551 1551 1545 1543 1544 1542 1540 1538 1536
1504 1506 1507 1508 1509 1509 1510 1511 1513 1516 1524 1524 1523 1525 1527 1530 1532 1539 1538 1539 1542 1547 1548 1550 1552 1554 1555 1556 1557 1560 1562 1563 1566 1562 1562 1556 1554 1540 1538 1539 1537 1540 1538 1531
1503 1505 1506 1507 1508 1509 1510 1511 1513 1515 1524 1524 1523 1526 1527 1530 1533 1535 1541 1543 1543 1551 1550 1552 1555 1556 1558 1559 1561 1562 1569 1570 1575 1569 1567 1559 1538 1538 1538 1538 1535 1533 1531 1531
1502 1504 1506 1507 1508 1510 1510 1512 1514 1515 1525 1525 1526 1527 1529 1533 1536 1540 1542 1545 1547 1550 1553 1554 1561 1556 1562 1562 1563 1563 1564 1569 1574 1572 1564 1548 1537 1533 1536 1538 1535 1532 1532 1533
1502 1504 1505 1507 1509 1510 1511 1513 1514 1515 1518 1524 1524 1527 1530 1532 1536 1542 1546 1547 1548 1550 1553 1557 1563 1554 1554 1551 1558 1568 1567 1568 1566 1575 1569 1554 1532 1535 1539 1538 1531 1535 1536 1535
1501 1503 1505 1507 1509 1510 1512 1513 1515 1516 1518 1523 1525 1526 1529 1532 1535 1539 1545 1548 1550 1550 1557 1563 1563 1556 1555 1551 1560 1563 1569 1570 1567 1565 1562 1546 1533 1538 1538 1542 1537 1536 1537 1534
1499 1502 1505 1507 1508 1510 1512 1513 1515 1517 1518 1522 1524 1526 1528 1530 1532 1535 1543 1547 1549 1553 1557 1559 1561 1561 1553 1554 1548 1553 1550 1560 1564 1566 1563 1551 1536 1538 1542 1538 1535 1533 1532 1531
1498 1501 1504 1506 1508 1510 1512 1513 1515 1517 1519 1522 1524 1526 1527 1529 1530 1533 1537 1539 1540 1543 1549 1557 1558 1557 1562 1554 1551 1549 1549 1544 1543 1546 1536 1531 1533 1535 1535 1533 1532 1531 1529 1528
1496 1499 1502 1505 1507 1509 1511 1513 1515 1517 1519 1523 1525 1525 1527 1528 1529 1531 1535 1537 1538 1539 1541 1546 1551 1554 1551 1556 1550 1542 1539 1543 1542 1541 1531 1530 1530 1531 1531 1531 1530 1530 1530 1528
1494 1498 1501 1504 1506 1508 1511 1513 1514 1517 1519 1520 1524 1523 1525 1526 1528 1530 1532 1533 1535 1537 1539 1542 1546 1546 1544 1542 1541 1540 1539 1538 1535 1530 1530 1529 1527 1529 1528 1528 1528 1529 1529 1527
1493 1497 1500 1503 1506 1508 1510 1512 1514 1515 1518 1519 1521 1522 1523 1524 1525 1527 1529 1531 1533 1534 1537 1539 1541 1540 1542 1542 1543 1539 1534 1530 1532 1529 1527 1528 1528 1526 1528 1528 1529 1529 1527 1525
1491 1495 1499 1502 1505 1508 1511 1513 1513 1514 1515 1518 1521 1520 1520 1521 1523 1525 1527 1529 1530 1532 1533 1534 1533 1533 1536 1538 1534 1527 1527 1527 1527 1527 1526 1526 1527 1527 1528 1529 1530 1528 1526 1522
1490 1494 1498 1501 1504 1507 1510 1511 1511 1512 1514 1517 1518 1518 1517 1518 1521 1523 1524 1525 1528 1530 1531 1530 1530 1531 1533 1531 1528 1525 1526 1526 1526 1526 1526 1527 1527 1527 1528 1527 1527 1525 1522 1520
1487 1492 1497 1500 1502 1505 1507 1509 1510 1512 1514 1516 1516 1516 1518 1516 1517 1520 1521 1524 1525 1525 1525 1525 1525 1527 1527 1524 1521 1522 1523 1524 1524 1525 1525 1525 1527 1527 1527 1525 1523 1521 1518 1515
1485 1489 1494 1497 1497 1499 1501 1507 1510 1511 1516 1511 1511 1511 1513 1513 1516 1518 1520 1521 1523 1523 1521 1522 1523 1521 1518 1517 1518 1519 1520 1522 1524 1524 1526 1526 1526 1526 1524 1521 1520 1517 1513 1510
1478 1485 1489 1488 1489 1494 1500 1506 1506 1507 1506 1506 1504 1505 1508 1512 1514 1517 1520 1520 1520 1519 1520 1520 1519 1514 1515 1516 1517 1519 1519 1522 1523 1525 1525 1524 1523 1521 1520 1518 1515 1512 1508 1503
1465 1470 1478 1483 1486 1491 1497 1499 1500 1500 1501 1498 1499 1502 1504 1509 1512 1514 1516 1517 1520 1517 1517 1516 1512 1509 1512 1516 1518 1519 1521 1523 1524 1524 1523 1522 1520 1518 1515 1513 1510 1507 1503 1498
1462 1464 1475 1482 1483 1487 1491 1493 1496 1493 1492 1496 1498 1501 1503 1506 1508 1510 1514 1514 1518 1513 1519 1518 1506 1505 1511 1515 1517 1518 1519 1521 1521 1520 1519 1518 1516 1514 1511 1508 1504 1501 1497 1492
1463 1467 1472 1477 1484 1483 1482 1483 1488 1490 1493 1494 1496 1500 1502 1505 1508 1510 1512 1510 1512 1518 1517 1506 1501 1507 1511 1514 1516 1518 1518 1518 1518 1517 1515 1513 1510 1508 1506 1502 1499 1495 1490 1486
1465 1468 1474 1476 1478 1480 1481 1483 1486 1490 1491 1493 1495 1499 1503 1506 1508 1511 1509 1515 1516 1511 1508 1501 1505 1507 1510 1513 1515 1516 1516 1515 1513 1511 1509 1506 1505 1501 1499 1497 1493 1489 1484 1478
1470 1472 1474 1477 1481 1483 1483 1485 1489 1491 1493 1495 1498 1502 1505 1507 1510 1511 1513 1514 1507 1501 1496 1500 1503 1506 1508 1511 1512 1512 1512 1510 1507 1505 1502 1500 1499 1496 1491 1490 1486 1482 1477 1471
1473 1477 1480 1482 1483 1484 1486 1487 1489 1491 1493 1496 1500 1503 1504 1506 1507 1509 1506 1504 1497 1496 1500 1501 1504 1507 1507 1508 1509 1508 1506 1504 1501 1499 1497 1494 1492 1490 1486 1483 1479 1474 1469 1465
1476 1480 1480 1483 1483 1482 1485 1488 1490 1492 1494 1497 1500 1500 1499 1507 1505 1504 1503 1499 1497 1498 1501 1502 1504 1507 1506 1505 1503 1502 1500 1498 1495 1493 1491 1489 1487 1484 1481 1476 1472 1467 1463 1458